Regional Weather Roundup
Issued by NWS Jackson, KY

Home | Current Version | Previous Version | Graphics & Text | Print | Product List | Glossary On
Versions: 1 2 3 4 5 6 7 8 9 10 11 12 13 14 15 16 17 18 19 20 21 22 23 24 25 26 27 28 29 30 31 32 33 34 35 36 37 38 39 40 41 42 43 44 45 46 47 48 49 50
000
ASUS43 KJKL 220510
RWRJKL

EAST KENTUCKY HOURLY WEATHER ROUNDUP
NATIONAL WEATHER SERVICE JACKSON KY
100 AM EDT MON SEP 22 2014

NOTE: "FAIR" INDICATES FEW OR NO CLOUDS BELOW 12,000 FEET WITH
NO SIGNIFICANT WEATHER AND/OR OBSTRUCTIONS TO VISIBILITY.

* THESE REPORTS ARE NOT UNDER NWS QUALITY CONTROL AND MAY NOT
  REPORT WEATHER SUCH AS PRECIPITATION AND FOG.

KYZ079-080-083-085-087-088-110-112-115-119-120-220600
...EASTERN KENTUCKY...

CITY           SKY/WX    TMP DP  RH WIND       PRES   REMARKS
JACKSON        CLEAR     60  48  64 VRB3      30.04R
LONDON         CLEAR     61  49  64 N6        30.06R
SOMERSET*      CLEAR     59  48  67 N5        30.07S
MONTICELLO*    CLEAR     59  52  77 N6        30.08R
MIDDLESBORO*   CLEAR     58  53  83 CALM      30.05R
HARLAN APT*    CLEAR     55  52  88 MISG      30.05R
HAZARD APT*    PTCLDY    57  52  82 NW5       30.04R
BLACK MTN*       N/A     50  46  87 VRB6        N/A
PIKEVILLE APT* CLEAR     59  48  67 NW8       30.03R
BIG SANDY*     CLEAR     60  49  65 NW5       30.03R
MOREHEAD APT*  CLEAR     57  46  67 NW10G18   30.06S
$$

KYZ035-036-041-042-044-050-067-078-099-220600
...CENTRAL KENTUCKY...

CITY           SKY/WX    TMP DP  RH WIND       PRES   REMARKS
MT STERLING*   CLEAR     55  48  76 N5        30.06S
FLEMING/MASON* CLEAR     55  48  76 NW7       30.06S
DANVILLE*      CLEAR     54  48  82 CALM      30.08R
RICHMOND*      CLEAR     59  48  67 CALM      30.06R
LEXINGTON      CLEAR     57  49  74 N6        30.06S
FRANKFORT      CLEAR     57  48  72 N7        30.06S
$$

KYZ091>093-OHZ055-061-077-WVZ005-015-034-035-042-220600
...SOUTHERN OHIO/WEST VIRGINIA...

CITY           SKY/WX    TMP DP  RH WIND       PRES   REMARKS
COVINGTON      CLEAR     56  48  74 NW9       30.07S
COLUMBUS       CLOUDY    58  46  64 NW13G24   30.01R
DAYTON         PTCLDY    53  48  83 NW12      30.06S
WILMINGTON     CLEAR     54  47  77 NW9       30.03S
HUNTINGTON     CLEAR     59  48  67 NW8       30.01R
CHARLESTON     PTCLDY    61  48  62 NW7       29.99R
PINEVILLE*     CLEAR     55  55 100 MISG      30.05S
BECKLEY        PTCLDY    56  47  71 W6        30.01S
BLUEFIELD      PTCLDY    60  46  59 NW7       30.03R
$$

VAZ002-007-008-TNZ017-027-036-066-071-220600
...SOUTHWEST VIRGINIA/EAST TENNESSEE...

CITY           SKY/WX    TMP DP  RH WIND       PRES   REMARKS
WISE*          CLEAR     57  45  62 NW6       30.07S
JONESVILLE*    CLEAR     57  54  88 CALM      30.06R
ABINGDON*      CLEAR     63  51  66 N3        30.03R
BRISTOL        PTCLDY    61  50  67 N3        30.02S
KNOXVILLE      PTCLDY    66  51  58 N5        30.02R
OAK RIDGE      CLEAR     63  52  67 CALM      30.04R
CROSSVILLE     CLEAR     58  50  75 CALM      30.07R
NASHVILLE      CLEAR     66  50  56 N10       30.07R
$$

...KEY TO REMARKS...
VSB - VISIBILITY IN MILES
WCI - WIND CHILL INDEX
HX  - HEAT INDEX

$$



USA.gov is the U.S. government's official web portal to all federal, state and local government web resources and services.